Le nostre stazioni meteo in Italia

Pubblicità
Il mio iltempo24.it
Concordia Sagittaria, Italia (16107): Temperatura & dewpoint: 15.01.2020 04:00:00 - 21.01.2020 04:00:00 (CET)Concordia Sagittaria, Italia (16107): velocità del vento: 15.01.2020 04:00:00 - 21.01.2020 04:00:00 (CET)Concordia Sagittaria, Italia (16107): direzione del vento: 15.01.2020 04:00:00 - 21.01.2020 04:00:00 (CET)Concordia Sagittaria, Italia (16107): reduced air pressure: 15.01.2020 04:00:00 - 21.01.2020 04:00:00 (CET)
Data & Tempo tt [°C] td [°C] ff [km/h] ff [kn] dd ppp [hPa]
21.01.2020 04:00:00 - - - - - -
21.01.2020 03:00:00 - - - - - -
21.01.2020 02:00:00 0,3 -2,0 4 2 NO 1049,1
21.01.2020 01:00:00 1,7 -0,9 5 3 N 1049,4
21.01.2020 00:00:00 0,9 -1,7 4 2 NNO 1049,6
20.01.2020 23:00:00 1,7 -0,9 5 3 NO 1049,5
20.01.2020 22:00:00 2,4 -1,1 5 3 NO 1049,8
20.01.2020 21:00:00 3,9 -0,9 11 6 ENE 1049,6
20.01.2020 20:00:00 4,8 -0,5 16 9 NE 1049,4
20.01.2020 19:00:00 4,8 0,3 16 9 NE 1048,7
20.01.2020 18:00:00 5,3 0,2 16 9 ENE 1047,8
20.01.2020 17:00:00 6,9 -0,2 16 9 ENE 1047,1
20.01.2020 16:00:00 8,7 0,6 16 9 NE 1047,1
20.01.2020 15:00:00 9,6 -0,1 16 9 NE 1046,8
20.01.2020 14:00:00 10,3 0,5 24 13 NE 1046,4
20.01.2020 13:00:00 10,0 0,2 16 9 NNE 1046,6
20.01.2020 12:00:00 8,5 1,3 15 8 NNE 1046,8
20.01.2020 11:00:00 6,5 1,6 13 7 NNO 1047,2
20.01.2020 10:00:00 3,8 0,3 8 4 N 1046,8
20.01.2020 09:00:00 1,2 -1,9 5 3 N 1046,4
20.01.2020 08:00:00 0,3 -2,8 4 2 NNO 1045,7
20.01.2020 07:00:00 0,6 -3,0 4 2 NNO 1045,1
20.01.2020 06:00:00 1,4 -1,9 4 2 NNO 1044,3
20.01.2020 05:00:00 1,4 -0,6 4 2 ONO 1043,8
20.01.2020 04:00:00 0,7 -0,8 4 2 NNO 1043,2
20.01.2020 03:00:00 0,8 -0,7 5 3 N 1042,6
20.01.2020 02:00:00 1,1 -0,4 2 1 NNE 1042,0
20.01.2020 01:00:00 1,2 -0,3 4 2 NE 1041,5
20.01.2020 00:00:00 1,7 0,2 4 2 NNE 1041,0
19.01.2020 23:00:00 2,4 0,9 5 3 NNE 1040,7
19.01.2020 22:00:00 2,5 1,0 5 3 ENE 1040,2
19.01.2020 21:00:00 2,6 1,1 5 3 N 1039,2
19.01.2020 20:00:00 3,6 2,1 4 2 N 1038,0
19.01.2020 19:00:00 4,4 2,2 5 3 NNO 1037,1
19.01.2020 18:00:00 5,6 2,7 4 2 NO 1036,2
19.01.2020 17:00:00 7,3 3,3 4 2 ONO 1035,3
19.01.2020 16:00:00 9,7 4,2 0 0 N 1034,3
19.01.2020 15:00:00 10,6 2,1 0 0 N 1033,5
19.01.2020 14:00:00 10,5 3,7 4 2 E 1033,1
19.01.2020 13:00:00 10,4 4,3 4 2 NE 1033,0
19.01.2020 12:00:00 8,3 4,8 4 2 NNE 1033,3
19.01.2020 11:00:00 7,9 5,2 9 5 ONO 1033,1
19.01.2020 10:00:00 6,9 5,4 11 6 NE 1032,5
19.01.2020 09:00:00 5,1 3,6 4 2 NNO 1032,2
19.01.2020 08:00:00 4,9 3,4 2 1 OSO 1031,4
19.01.2020 07:00:00 5,1 3,6 11 6 N 1031,1
19.01.2020 06:00:00 5,3 3,8 8 4 NNO 1030,7
19.01.2020 05:00:00 4,8 3,3 5 3 E 1030,0
19.01.2020 04:00:00 4,9 3,4 8 4 NNE 1029,7
19.01.2020 03:00:00 5,1 3,6 2 1 NNO 1029,6
19.01.2020 02:00:00 5,4 3,9 4 2 SSO 1028,9
19.01.2020 01:00:00 5,7 4,3 4 2 SE 1028,4
19.01.2020 00:00:00 6,1 4,6 2 1 O 1028,3
18.01.2020 23:00:00 5,9 4,4 2 1 SSO 1028,4
18.01.2020 22:00:00 6,6 5,1 4 2 SSO 1028,5
18.01.2020 21:00:00 6,5 5,0 5 3 O 1028,4
18.01.2020 20:00:00 6,5 5,0 4 2 O 1028,1
18.01.2020 19:00:00 6,5 5,0 0 0 N 1027,9
18.01.2020 18:00:00 7,1 5,5 5 3 NNO 1027,2
18.01.2020 17:00:00 7,3 5,7 4 2 NNE 1026,7
18.01.2020 16:00:00 7,8 6,2 4 2 NNE 1026,6
18.01.2020 15:00:00 8,0 6,4 4 2 NNO 1026,6
18.01.2020 14:00:00 7,5 5,9 0 0 N 1026,7
18.01.2020 13:00:00 6,5 5,0 5 3 NO 1027,0
18.01.2020 12:00:00 5,8 4,3 5 3 NO 1027,7
18.01.2020 11:00:00 5,2 3,8 4 2 N 1028,1
18.01.2020 10:00:00 4,8 3,4 4 2 N 1028,0
18.01.2020 09:00:00 4,3 2,9 5 3 N 1027,8
18.01.2020 08:00:00 4,3 2,9 5 3 NNO 1027,6
18.01.2020 07:00:00 4,5 3,1 8 4 N 1027,4
18.01.2020 06:00:00 4,6 3,2 4 2 N 1027,3
18.01.2020 05:00:00 4,6 3,2 8 4 NNE 1027,4
18.01.2020 04:00:00 4,0 2,6 8 4 N 1027,7
18.01.2020 03:00:00 3,4 2,1 5 3 N 1028,1
18.01.2020 02:00:00 3,2 1,9 8 4 NNO 1027,9
18.01.2020 01:00:00 2,6 1,3 4 2 NO 1028,0
18.01.2020 00:00:00 3,3 1,8 5 3 ONO 1028,3
17.01.2020 23:00:00 2,2 0,7 2 1 ONO 1028,6
17.01.2020 22:00:00 2,7 1,2 4 2 NNE 1028,7
17.01.2020 21:00:00 2,7 1,2 4 2 N 1028,9
17.01.2020 20:00:00 3,3 1,8 0 0 N 1029,0
17.01.2020 19:00:00 4,3 2,8 4 2 ESE 1029,0
17.01.2020 18:00:00 7,0 5,5 5 3 SE 1028,8
17.01.2020 17:00:00 9,3 5,6 5 3 SSE 1028,3
17.01.2020 16:00:00 12,9 5,7 5 3 SE 1027,9
17.01.2020 15:00:00 13,8 5,4 4 2 SE 1027,9
17.01.2020 14:00:00 13,4 5,2 2 1 NNE 1028,4
17.01.2020 13:00:00 12,7 5,3 5 3 E 1029,1
17.01.2020 12:00:00 11,5 5,5 5 3 NNE 1029,7
17.01.2020 11:00:00 9,1 4,7 5 3 N 1030,2
17.01.2020 10:00:00 6,5 4,1 4 2 NNE 1030,2
17.01.2020 09:00:00 3,7 1,7 8 4 NNO 1030,5
17.01.2020 08:00:00 2,2 0,1 9 5 NNO 1030,6
17.01.2020 07:00:00 2,9 1,2 4 2 N 1030,7
17.01.2020 06:00:00 1,8 -0,7 2 1 O 1030,8
17.01.2020 05:00:00 3,5 0,8 5 3 NO 1030,9
17.01.2020 04:00:00 3,5 0,8 8 4 NNO 1031,4
17.01.2020 03:00:00 3,4 0,9 9 5 N 1031,9
17.01.2020 02:00:00 3,3 1,0 9 5 NNO 1032,3
17.01.2020 01:00:00 3,6 0,9 4 2 N 1032,9
17.01.2020 00:00:00 4,2 1,5 5 3 N 1033,2
16.01.2020 23:00:00 4,4 2,1 11 6 NNO 1033,4
16.01.2020 22:00:00 4,7 2,7 8 4 NNO 1033,7
16.01.2020 21:00:00 5,7 4,2 5 3 NNO 1034,1
16.01.2020 20:00:00 5,6 4,1 5 3 NO 1034,4
16.01.2020 19:00:00 5,4 3,9 8 4 O 1034,6
16.01.2020 18:00:00 5,5 3,0 5 3 O 1034,6
16.01.2020 17:00:00 8,7 4,5 2 1 SO 1034,4
16.01.2020 16:00:00 10,4 5,5 2 1 ONO 1034,5
16.01.2020 15:00:00 10,3 5,6 8 4 O 1034,8
16.01.2020 14:00:00 9,6 5,7 4 2 ONO 1035,3
16.01.2020 13:00:00 8,4 5,5 4 2 O 1036,2
16.01.2020 12:00:00 6,3 4,4 4 2 O 1037,1
16.01.2020 11:00:00 4,7 3,2 2 1 ONO 1037,8
16.01.2020 10:00:00 2,4 1,1 4 2 ONO 1037,8
16.01.2020 09:00:00 0,1 -1,2 4 2 ONO 1037,5
16.01.2020 08:00:00 -0,7 -2,2 4 2 ONO 1036,8
16.01.2020 07:00:00 -1,3 -2,8 4 2 NNO 1036,2
16.01.2020 06:00:00 -0,5 -2,0 4 2 NO 1036,0
16.01.2020 05:00:00 -0,7 -2,2 4 2 NNO 1035,8
16.01.2020 04:00:00 -0,6 -2,1 4 2 O 1035,6
16.01.2020 03:00:00 -0,8 -2,3 0 0 N 1035,4
16.01.2020 02:00:00 -0,8 -2,3 2 1 ONO 1034,9
16.01.2020 01:00:00 -0,7 -2,2 4 2 O 1034,7
16.01.2020 00:00:00 -0,7 -2,2 0 0 N 1034,7
15.01.2020 23:00:00 0,0 -1,5 0 0 N 1034,7
15.01.2020 22:00:00 0,4 -1,1 2 1 O 1034,7
15.01.2020 21:00:00 0,7 -0,8 2 1 OSO 1034,7
15.01.2020 20:00:00 1,3 -0,2 2 1 N 1034,7
15.01.2020 19:00:00 3,1 1,6 2 1 OSO 1034,4
15.01.2020 18:00:00 5,3 3,8 4 2 SSO 1034,1
15.01.2020 17:00:00 6,2 3,3 2 1 SSO 1033,8
15.01.2020 16:00:00 8,0 4,2 2 1 S 1033,5
15.01.2020 15:00:00 7,3 4,0 0 0 N 1033,4
15.01.2020 14:00:00 6,6 4,2 2 1 ONO 1033,5
15.01.2020 13:00:00 5,3 3,8 2 1 NNO 1034,2
15.01.2020 12:00:00 4,0 2,5 2 1 NO 1034,7
15.01.2020 11:00:00 2,9 1,4 4 2 N 1035,0
15.01.2020 10:00:00 1,9 0,4 4 2 N 1034,9
15.01.2020 09:00:00 0,9 -0,6 5 3 NNO 1034,7
15.01.2020 08:00:00 0,7 -0,8 5 3 NNO 1034,4
15.01.2020 07:00:00 0,5 -1,0 4 2 NNO 1034,3
15.01.2020 06:00:00 0,2 -1,3 5 3 NNO 1033,9
15.01.2020 05:00:00 -0,2 -1,7 4 2 NNO 1033,9
15.01.2020 04:00:00 -0,6 -2,1 4 2 NNO 1033,9

tt = Temperatura
td = dewpoint
ff = velocità del vento
dd = direzione del vento
ppp = reduced air pressure

Stazioni seguenti

WeatherPro
AMSI
MeteoEarth